Time[GMT],gps_lat[degrees_north](-0m),gps_lon[degrees_west](-0m)
2015-08-26 02:00,43.844066620,-69.569351196
2015-08-26 03:00,43.843948364,-69.569335938
2015-08-26 04:00,43.843898773,-69.569381714
2015-08-26 05:00,43.843898773,-69.569366455
2015-08-26 06:00,43.844017029,-69.569419861
2015-08-26 07:00,43.844116211,-69.569435120
2015-08-26 08:00,43.844116211,-69.569419861
2015-08-26 09:00,43.844200134,-69.569435120
2015-08-26 10:00,43.844234467,-69.569381714
2015-08-26 11:00,43.844234467,-69.569396973
2015-08-26 12:00,43.844200134,-69.569396973
2015-08-26 13:00,43.844150543,-69.569381714
2015-08-26 14:00,43.844116211,-69.569381714
2015-08-26 15:00,43.844051361,-69.569313049
2015-08-26 16:00,43.843967438,-69.569313049
2015-08-26 17:00,43.843917847,-69.569366455
2015-08-26 18:00,43.844001770,-69.569381714
2015-08-26 19:00,43.844081879,-69.569435120
2015-08-26 20:00,43.844131470,-69.569419861
2015-08-26 21:00,43.844200134,-69.569450378
2015-08-26 22:00,43.844215393,-69.569450378
2015-08-26 23:00,43.844234467,-69.569419861
2015-08-27 00:00,43.844184875,-69.569419861
2015-08-27 01:00,43.844165802,-69.569381714
2015-08-27 02:00,43.844081879,-69.569351196
2015-08-27 03:00,43.844032288,-69.569297791
2015-08-27 04:00,43.843917847,-69.569297791
2015-08-27 05:00,43.843868256,-69.569351196
2015-08-27 06:00,43.843883514,-69.569351196
2015-08-27 07:00,43.843933105,-69.569335938
2015-08-27 08:00,43.844017029,-69.569351196
2015-08-27 09:00,43.844116211,-69.569381714
2015-08-27 10:00,43.844215393,-69.569435120
2015-08-27 11:00,43.844215393,-69.569419861
2015-08-27 12:00,43.844200134,-69.569419861
2015-08-27 13:00,43.844131470,-69.569381714
2015-08-27 14:00,43.844116211,-69.569366455
2015-08-27 15:00,43.844066620,-69.569297791
2015-08-27 16:00,43.844001770,-69.569335938
2015-08-27 17:00,43.843948364,-69.569351196
2015-08-27 18:00,43.843883514,-69.569351196
2015-08-27 19:00,43.844051361,-69.569335938
2015-08-27 20:00,43.844131470,-69.569335938
2015-08-27 21:00,43.844215393,-69.569419861
2015-08-27 22:00,43.844264984,-69.569435120
2015-08-27 23:00,43.844264984,-69.569396973
2015-08-28 00:00,43.844249725,-69.569396973
2015-08-28 01:00,43.844234467,-69.569396973
2015-08-28 02:00,43.844200134,-69.569351196
2015-08-28 03:00,43.844116211,-69.569313049
2015-08-28 04:00,43.843967438,-69.569282532
2015-08-28 05:00,43.843868256,-69.569351196
2015-08-28 06:00,43.843868256,-69.569297791
2015-08-28 07:00,43.843868256,-69.569297791
2015-08-28 08:00,43.843898773,-69.569297791
2015-08-28 09:00,43.844032288,-69.569351196
2015-08-28 10:00,43.844116211,-69.569381714
2015-08-28 11:00,43.844234467,-69.569450378
2015-08-28 12:00,43.844234467,-69.569419861
2015-08-28 13:00,43.844184875,-69.569381714
2015-08-28 14:00,43.844131470,-69.569335938
2015-08-28 15:00,43.843982697,-69.569313049
2015-08-28 16:00,43.843967438,-69.569282532
2015-08-28 17:00,43.843948364,-69.569267273
2015-08-28 18:00,43.843883514,-69.569313049
2015-08-28 19:00,43.843883514,-69.569282532
2015-08-28 20:00,43.843967438,-69.569282532
2015-08-28 21:00,43.844116211,-69.569297791
2015-08-28 22:00,43.844200134,-69.569396973
2015-08-28 23:00,43.844264984,-69.569419861
2015-08-29 00:00,43.844249725,-69.569381714
2015-08-29 01:00,43.844264984,-69.569381714
2015-08-29 02:00,43.844234467,-69.569351196
2015-08-29 03:00,43.844200134,-69.569313049
2015-08-29 04:00,43.844081879,-69.569297791
2015-08-29 05:00,43.843917847,-69.569282532
2015-08-29 06:00,43.843883514,-69.569335938
2015-08-29 07:00,43.843883514,-69.569282532
2015-08-29 08:00,43.843898773,-69.569297791
2015-08-29 09:00,43.843948364,-69.569313049
2015-08-29 10:00,43.844081879,-69.569351196
2015-08-29 11:00,43.844184875,-69.569419861
2015-08-29 12:00,43.844215393,-69.569450378
2015-08-29 13:00,43.844215393,-69.569381714
2015-08-29 14:00,43.844215393,-69.569381714
2015-08-29 15:00,43.844184875,-69.569366455
2015-08-29 16:00,43.844165802,-69.569313049
2015-08-29 17:00,43.843967438,-69.569267273
2015-08-29 18:00,43.843933105,-69.569297791
2015-08-29 19:00,43.843948364,-69.569267273
2015-08-29 20:00,43.843948364,-69.569267273
2015-08-29 21:00,43.843948364,-69.569267273
2015-08-29 22:00,43.844116211,-69.569419861
2015-08-29 23:00,43.844234467,-69.569465637
2015-08-30 00:00,43.844234467,-69.569435120
2015-08-30 01:00,43.844234467,-69.569419861
2015-08-30 02:00,43.844249725,-69.569381714
2015-08-30 03:00,43.844234467,-69.569335938
2015-08-30 04:00,43.844150543,-69.569335938
2015-08-30 05:00,43.844066620,-69.569297791
2015-08-30 06:00,43.843898773,-69.569297791
2015-08-30 07:00,43.843883514,-69.569297791
2015-08-30 08:00,43.843898773,-69.569297791
2015-08-30 09:00,43.843898773,-69.569282532
2015-08-30 10:00,43.843948364,-69.569335938
2015-08-30 11:00,43.844116211,-69.569396973
2015-08-30 12:00,43.844165802,-69.569435120
2015-08-30 13:00,43.844249725,-69.569419861
2015-08-30 14:00,43.844234467,-69.569396973
2015-08-30 15:00,43.844215393,-69.569381714
2015-08-30 16:00,43.844215393,-69.569351196
2015-08-30 17:00,43.844184875,-69.569267273
2015-08-30 18:00,43.843933105,-69.569282532
2015-08-30 19:00,43.843898773,-69.569297791
2015-08-30 20:00,43.843883514,-69.569335938
2015-08-30 21:00,43.843883514,-69.569267273
2015-08-30 22:00,43.843917847,-69.569313049
2015-08-30 23:00,43.844131470,-69.569396973
2015-08-31 00:00,43.844165802,-69.569450378
2015-08-31 01:00,43.844249725,-69.569435120
2015-08-31 02:00,43.844264984,-69.569419861
2015-08-31 03:00,43.844249725,-69.569396973
2015-08-31 04:00,43.844215393,-69.569335938
2015-08-31 05:00,43.844131470,-69.569335938
2015-08-31 06:00,43.843948364,-69.569282532
2015-08-31 07:00,43.843933105,-69.569282532
2015-08-31 08:00,43.843898773,-69.569297791
2015-08-31 09:00,43.843917847,-69.569267273
2015-08-31 10:00,43.843917847,-69.569282532
2015-08-31 11:00,43.843948364,-69.569313049
2015-08-31 12:00,43.844100952,-69.569351196
2015-08-31 13:00,43.844184875,-69.569396973
2015-08-31 14:00,43.844234467,-69.569396973
2015-08-31 15:00,43.844264984,-69.569396973
2015-08-31 16:00,43.844249725,-69.569366455
2015-08-31 17:00,43.844200134,-69.569335938
2015-08-31 18:00,43.844116211,-69.569267273
2015-08-31 19:00,43.843948364,-69.569267273
2015-08-31 20:00,43.843917847,-69.569313049
2015-08-31 21:00,43.843917847,-69.569313049
2015-08-31 22:00,43.843898773,-69.569313049
2015-08-31 23:00,43.843933105,-69.569335938
2015-09-01 00:00,43.844066620,-69.569366455
2015-09-01 01:00,43.844131470,-69.569396973
2015-09-01 02:00,43.844264984,-69.569435120
2015-09-01 03:00,43.844215393,-69.569396973
2015-09-01 04:00,43.844215393,-69.569396973
2015-09-01 05:00,43.844184875,-69.569366455
2015-09-01 06:00,43.844081879,-69.569313049
2015-09-01 07:00,43.843948364,-69.569282532
2015-09-01 08:00,43.843948364,-69.569297791
2015-09-01 09:00,43.843933105,-69.569297791
2015-09-01 10:00,43.843917847,-69.569267273
2015-09-01 11:00,43.843917847,-69.569313049
2015-09-01 12:00,43.843967438,-69.569313049
2015-09-01 13:00,43.844081879,-69.569313049
2015-09-01 14:00,43.844165802,-69.569465637
2015-09-01 15:00,43.844234467,-69.569381714
2015-09-01 16:00,43.844249725,-69.569419861
2015-09-01 17:00,43.844215393,-69.569335938
2015-09-01 18:00,43.844165802,-69.569351196
2015-09-01 19:00,43.844100952,-69.569313049
2015-09-01 20:00,43.844001770,-69.569252014
2015-09-01 21:00,43.843933105,-69.569282532
2015-09-01 22:00,43.843898773,-69.569297791
2015-09-01 23:00,43.843933105,-69.569282532
2015-09-02 00:00,43.843967438,-69.569313049
2015-09-02 01:00,43.844150543,-69.569366455
2015-09-02 02:00,43.844234467,-69.569381714
2015-09-02 03:00,43.844249725,-69.569396973
2015-09-02 04:00,43.844249725,-69.569396973
2015-09-02 05:00,43.844215393,-69.569396973
2015-09-02 06:00,43.844150543,-69.569335938
2015-09-02 07:00,43.844116211,-69.569267273
2015-09-02 08:00,43.843982697,-69.569267273
2015-09-02 09:00,43.843967438,-69.569297791
2015-09-02 10:00,43.843967438,-69.569267273
2015-09-02 11:00,43.843933105,-69.569282532
2015-09-02 12:00,43.843917847,-69.569297791
2015-09-02 13:00,43.844001770,-69.569335938
2015-09-02 14:00,43.844131470,-69.569366455
2015-09-02 15:00,43.844215393,-69.569419861
2015-09-02 16:00,43.844249725,-69.569396973
2015-09-02 17:00,43.844249725,-69.569396973
2015-09-02 18:00,43.844200134,-69.569396973
2015-09-02 19:00,43.844150543,-69.569335938
2015-09-02 20:00,43.844066620,-69.569282532
2015-09-02 21:00,43.843982697,-69.569282532
2015-09-02 22:00,43.844001770,-69.569282532
2015-09-02 23:00,43.843948364,-69.569282532
2015-09-03 00:00,43.843898773,-69.569282532
2015-09-03 01:00,43.843967438,-69.569297791
2015-09-03 02:00,43.844165802,-69.569351196
2015-09-03 03:00,43.844215393,-69.569435120
2015-09-03 04:00,43.844234467,-69.569419861
2015-09-03 05:00,43.844215393,-69.569435120
2015-09-03 06:00,43.844165802,-69.569396973
2015-09-03 07:00,43.844165802,-69.569335938
2015-09-03 08:00,43.844081879,-69.569313049
2015-09-03 09:00,43.843982697,-69.569267273
2015-09-03 10:00,43.843933105,-69.569313049
2015-09-03 11:00,43.843933105,-69.569313049
2015-09-03 12:00,43.843917847,-69.569282532
2015-09-03 13:00,43.843933105,-69.569282532
2015-09-03 14:00,43.844051361,-69.569351196
2015-09-03 15:00,43.844200134,-69.569381714
2015-09-03 16:00,43.844284058,-69.569450378
2015-09-03 17:00,43.844264984,-69.569366455
2015-09-03 18:00,43.844215393,-69.569366455
2015-09-03 19:00,43.844200134,-69.569351196
2015-09-03 20:00,43.844116211,-69.569297791
2015-09-03 21:00,43.844017029,-69.569267273
2015-09-03 22:00,43.843967438,-69.569282532
2015-09-03 23:00,43.843967438,-69.569313049
2015-09-04 00:00,43.843933105,-69.569282532
2015-09-04 01:00,43.843948364,-69.569297791
2015-09-04 02:00,43.844001770,-69.569335938
2015-09-04 03:00,43.844131470,-69.569366455
2015-09-04 04:00,43.844200134,-69.569435120
2015-09-04 05:00,43.844215393,-69.569419861
2015-09-04 06:00,43.844200134,-69.569419861
2015-09-04 07:00,43.844184875,-69.569335938
2015-09-04 08:00,43.844131470,-69.569366455
2015-09-04 09:00,43.844066620,-69.569282532
2015-09-04 10:00,43.843982697,-69.569282532
2015-09-04 11:00,43.843948364,-69.569297791
2015-09-04 12:00,43.843917847,-69.569297791
2015-09-04 13:00,43.843917847,-69.569313049
2015-09-04 14:00,43.843933105,-69.569335938
2015-09-04 15:00,43.844215393,-69.569366455
2015-09-04 16:00,43.844234467,-69.569435120
2015-09-04 17:00,43.844234467,-69.569351196
2015-09-04 18:00,43.844200134,-69.569396973
2015-09-04 19:00,43.844200134,-69.569381714
2015-09-04 20:00,43.844165802,-69.569351196
2015-09-04 21:00,43.844116211,-69.569335938
2015-09-04 22:00,43.844081879,-69.569297791
2015-09-04 23:00,43.844017029,-69.569282532
2015-09-05 00:00,43.843948364,-69.569313049
2015-09-05 01:00,43.843982697,-69.569297791
2015-09-05 02:00,43.844001770,-69.569297791
2015-09-05 03:00,43.844051361,-69.569335938
2015-09-05 04:00,43.844131470,-69.569366455
2015-09-05 05:00,43.844184875,-69.569396973
2015-09-05 06:00,43.844200134,-69.569366455
2015-09-05 07:00,43.844184875,-69.569335938
2015-09-05 08:00,43.844200134,-69.569351196
2015-09-05 09:00,43.844150543,-69.569335938
2015-09-05 10:00,43.844081879,-69.569313049
2015-09-05 11:00,43.844001770,-69.569297791
2015-09-05 12:00,43.843967438,-69.569267273
2015-09-05 13:00,43.843967438,-69.569313049
2015-09-05 14:00,43.843933105,-69.569335938
2015-09-05 15:00,43.844001770,-69.569366455
2015-09-05 16:00,43.844165802,-69.569351196
2015-09-05 17:00,43.844215393,-69.569351196
2015-09-05 18:00,43.844200134,-69.569351196
2015-09-05 19:00,43.844200134,-69.569366455
2015-09-05 20:00,43.844234467,-69.569351196
2015-09-05 21:00,43.844200134,-69.569351196
2015-09-05 22:00,43.844150543,-69.569313049
2015-09-05 23:00,43.844100952,-69.569252014
2015-09-06 00:00,43.843982697,-69.569236755
2015-09-06 01:00,43.843933105,-69.569313049
2015-09-06 02:00,43.843967438,-69.569297791
2015-09-06 03:00,43.843967438,-69.569335938
2015-09-06 04:00,43.844017029,-69.569313049
2015-09-06 05:00,43.844116211,-69.569351196
2015-09-06 06:00,43.844165802,-69.569351196
2015-09-06 07:00,43.844234467,-69.569313049
2015-09-06 08:00,43.844215393,-69.569351196
2015-09-06 09:00,43.844215393,-69.569351196
2015-09-06 10:00,43.844184875,-69.569335938
2015-09-06 11:00,43.844131470,-69.569351196
2015-09-06 12:00,43.843982697,-69.569313049
2015-09-06 13:00,43.843967438,-69.569297791
2015-09-06 14:00,43.843933105,-69.569313049
2015-09-06 15:00,43.843917847,-69.569297791
2015-09-06 16:00,43.844001770,-69.569366455
2015-09-06 17:00,43.844200134,-69.569351196
2015-09-06 18:00,43.844215393,-69.569366455
2015-09-06 19:00,43.844234467,-69.569366455
2015-09-06 20:00,43.844215393,-69.569351196
2015-09-06 21:00,43.844200134,-69.569366455
2015-09-06 22:00,43.844184875,-69.569313049
2015-09-06 23:00,43.844165802,-69.569297791
2015-09-07 00:00,43.844066620,-69.569282532
2015-09-07 01:00,43.844001770,-69.569267273
2015-09-07 02:00,43.843967438,-69.569313049
2015-09-07 03:00,43.843967438,-69.569335938
2015-09-07 04:00,43.843967438,-69.569335938
2015-09-07 05:00,43.843982697,-69.569313049
2015-09-07 06:00,43.844116211,-69.569313049
2015-09-07 07:00,43.844200134,-69.569335938
2015-09-07 08:00,43.844234467,-69.569313049
2015-09-07 09:00,43.844234467,-69.569335938
2015-09-07 10:00,43.844215393,-69.569313049
2015-09-07 11:00,43.844184875,-69.569313049
2015-09-07 12:00,43.844116211,-69.569297791
2015-09-07 13:00,43.843982697,-69.569282532
2015-09-07 14:00,43.843967438,-69.569282532
2015-09-07 15:00,43.843982697,-69.569313049
2015-09-07 16:00,43.843982697,-69.569297791
2015-09-07 17:00,43.844017029,-69.569282532
2015-09-07 18:00,43.844131470,-69.569282532
2015-09-07 19:00,43.844234467,-69.569335938
2015-09-07 20:00,43.844215393,-69.569335938
2015-09-07 21:00,43.844215393,-69.569335938
2015-09-07 22:00,43.844215393,-69.569282532
2015-09-07 23:00,43.844200134,-69.569267273
2015-09-08 00:00,43.844150543,-69.569267273
2015-09-08 01:00,43.844100952,-69.569267273
2015-09-08 02:00,43.844017029,-69.569297791
2015-09-08 03:00,43.843967438,-69.569313049
2015-09-08 04:00,43.843948364,-69.569313049
2015-09-08 05:00,43.843948364,-69.569351196
2015-09-08 06:00,43.844001770,-69.569335938
2015-09-08 07:00,43.844116211,-69.569313049
2015-09-08 08:00,43.844184875,-69.569366455
2015-09-08 09:00,43.844200134,-69.569381714
2015-09-08 10:00,43.844200134,-69.569351196
2015-09-08 11:00,43.844184875,-69.569366455
2015-09-08 12:00,43.844131470,-69.569351196
2015-09-08 13:00,43.844100952,-69.569335938
2015-09-08 14:00,43.843982697,-69.569282532
2015-09-08 15:00,43.843982697,-69.569282532
2015-09-08 16:00,43.843982697,-69.569297791
2015-09-08 17:00,43.843967438,-69.569297791
2015-09-08 18:00,43.843967438,-69.569282532
2015-09-08 19:00,43.844116211,-69.569381714
2015-09-08 20:00,43.844184875,-69.569396973
2015-09-08 21:00,43.844200134,-69.569419861
2015-09-08 22:00,43.844200134,-69.569396973
2015-09-08 23:00,43.844184875,-69.569366455
2015-09-09 00:00,43.844131470,-69.569351196
2015-09-09 01:00,43.844150543,-69.569351196
2015-09-09 02:00,43.844081879,-69.569313049
2015-09-09 03:00,43.844017029,-69.569297791
2015-09-09 04:00,43.843948364,-69.569313049
2015-09-09 05:00,43.843948364,-69.569313049
2015-09-09 06:00,43.843933105,-69.569335938
2015-09-09 07:00,43.843967438,-69.569351196
2015-09-09 08:00,43.844100952,-69.569419861
2015-09-09 09:00,43.844184875,-69.569366455
2015-09-09 10:00,43.844184875,-69.569396973
2015-09-09 11:00,43.844184875,-69.569381714
2015-09-09 12:00,43.844184875,-69.569335938
2015-09-09 13:00,43.844150543,-69.569335938
2015-09-09 14:00,43.844100952,-69.569313049
2015-09-09 15:00,43.844081879,-69.569297791
2015-09-09 16:00,43.844001770,-69.569267273
2015-09-09 17:00,43.843967438,-69.569313049
2015-09-09 18:00,43.843933105,-69.569335938
2015-09-09 19:00,43.844051361,-69.569351196
2015-09-09 20:00,43.844200134,-69.569351196
2015-09-09 21:00,43.844215393,-69.569381714
2015-09-09 22:00,43.844249725,-69.569381714
2015-09-09 23:00,43.844249725,-69.569366455
2015-09-10 00:00,43.844249725,-69.569282532
2015-09-10 01:00,43.844234467,-69.569282532
2015-09-10 02:00,43.844165802,-69.569252014
2015-09-10 03:00,43.844066620,-69.569252014
2015-09-10 04:00,43.843982697,-69.569282532
2015-09-10 05:00,43.843933105,-69.569335938
2015-09-10 06:00,43.843933105,-69.569297791
2015-09-10 07:00,43.843948364,-69.569313049
2015-09-10 08:00,43.844001770,-69.569366455
2015-09-10 09:00,43.844116211,-69.569351196
2015-09-10 10:00,43.844165802,-69.569381714
2015-09-10 11:00,43.844184875,-69.569435120
2015-09-10 12:00,43.844200134,-69.569381714
2015-09-10 13:00,43.844165802,-69.569396973
2015-09-10 14:00,43.844116211,-69.569351196
2015-09-10 15:00,43.844116211,-69.569335938
2015-09-10 16:00,43.843967438,-69.569282532
2015-09-10 17:00,43.843967438,-69.569297791
2015-09-10 18:00,43.843917847,-69.569335938
2015-09-10 19:00,43.843917847,-69.569335938
2015-09-10 20:00,43.843967438,-69.569351196
2015-09-10 21:00,43.844081879,-69.569381714
2015-09-10 22:00,43.844165802,-69.569381714
2015-09-10 23:00,43.844215393,-69.569419861
2015-09-11 00:00,43.844200134,-69.569366455
2015-09-11 01:00,43.844234467,-69.569366455
2015-09-11 02:00,43.844184875,-69.569366455
2015-09-11 03:00,43.844131470,-69.569366455
2015-09-11 04:00,43.844032288,-69.569351196
2015-09-11 05:00,43.843948364,-69.569297791
2015-09-11 06:00,43.843898773,-69.569313049
2015-09-11 07:00,43.843917847,-69.569297791
2015-09-11 08:00,43.843917847,-69.569297791
2015-09-11 09:00,43.843982697,-69.569335938
2015-09-11 10:00,43.844081879,-69.569366455
2015-09-11 11:00,43.844116211,-69.569419861
2015-09-11 12:00,43.844131470,-69.569419861
2015-09-11 13:00,43.844131470,-69.569396973
2015-09-11 14:00,43.844032288,-69.569396973

